Time,TemperatureF,DewpointF,PressureIn,WindDirection,WindDirectionDegrees,WindSpeedMPH,WindSpeedGustMPH,Humidity,HourlyPrecipIn,Conditions,Clouds,dailyrainin,SoftwareType,DateUTC
2013-04-05 00:00:00,40.6,13.8,30.06,SSE,167,6.3,6.3,33,0.00,,---,0.00,VWS V14.01,2013-04-05 04:00:00,
2013-04-05 00:05:00,40.6,13.8,30.06,SSW,193,2.7,2.7,33,0.00,,---,0.00,VWS V14.01,2013-04-05 04:05:00,
2013-04-05 00:10:00,40.6,14.5,30.06,South,176,4.9,4.9,34,0.00,,---,0.00,VWS V14.01,2013-04-05 04:10:00,
2013-04-05 00:15:00,40.8,14.6,30.06,SSW,200,5.4,5.4,34,0.00,,---,0.00,VWS V14.01,2013-04-05 04:15:00,
2013-04-05 00:20:00,40.8,15.3,30.06,South,186,2.7,2.7,35,0.00,,---,0.00,VWS V14.01,2013-04-05 04:20:00,
2013-04-05 00:25:00,41.0,14.8,30.06,SSW,196,4.5,4.5,34,0.00,,---,0.00,VWS V14.01,2013-04-05 04:25:00,
2013-04-05 00:30:00,41.0,14.8,30.06,SSW,204,7.6,7.6,34,0.00,,---,0.00,VWS V14.01,2013-04-05 04:30:00,
2013-04-05 00:35:00,41.0,14.8,30.06,South,184,8.3,8.3,34,0.00,,---,0.00,VWS V14.01,2013-04-05 04:35:00,
2013-04-05 00:40:00,41.2,15.0,30.06,South,190,3.1,3.1,34,0.00,,---,0.00,VWS V14.01,2013-04-05 04:40:00,
2013-04-05 00:45:00,41.2,15.0,30.06,SW,221,3.6,3.6,34,0.00,,---,0.00,VWS V14.01,2013-04-05 04:45:00,
2013-04-05 00:50:00,41.2,15.0,30.06,SSW,200,3.1,3.1,34,0.00,,---,0.00,VWS V14.01,2013-04-05 04:50:00,
2013-04-05 00:55:00,41.2,15.0,30.06,South,172,3.6,3.6,34,0.00,,---,0.00,VWS V14.01,2013-04-05 04:55:00,
2013-04-05 01:00:00,41.4,15.1,30.06,SSW,195,3.6,3.6,34,0.00,,---,0.00,VWS V14.01,2013-04-05 05:00:00,
2013-04-05 01:05:00,41.4,15.1,30.06,SW,221,4.0,4.0,34,0.00,,---,0.00,VWS V14.01,2013-04-05 05:05:00,
2013-04-05 01:10:00,41.4,15.1,30.06,WSW,246,6.3,6.3,34,0.00,,---,0.00,VWS V14.01,2013-04-05 05:10:00,
2013-04-05 01:15:00,41.5,14.6,30.06,South,175,6.3,6.3,33,0.00,,---,0.00,VWS V14.01,2013-04-05 05:15:00,
2013-04-05 01:20:00,41.5,14.6,30.06,South,169,6.3,6.3,33,0.00,,---,0.00,VWS V14.01,2013-04-05 05:20:00,
2013-04-05 01:25:00,41.5,14.6,30.06,SW,226,8.3,8.3,33,0.00,,---,0.00,VWS V14.01,2013-04-05 05:25:00,
2013-04-05 01:30:00,41.5,14.6,30.03,South,191,4.0,4.0,33,0.00,,---,0.00,VWS V14.01,2013-04-05 05:30:00,
2013-04-05 01:35:00,41.5,14.6,30.03,SSW,192,0.0,0.0,33,0.00,,---,0.00,VWS V14.01,2013-04-05 05:35:00,
2013-04-05 01:40:00,41.5,14.6,30.03,SSW,196,2.2,2.2,33,0.00,,---,0.00,VWS V14.01,2013-04-05 05:40:00,
2013-04-05 01:45:00,41.5,14.6,30.03,SSW,212,3.1,3.1,33,0.00,,---,0.00,VWS V14.01,2013-04-05 05:45:00,
2013-04-05 01:50:00,41.5,14.6,30.03,SW,214,3.6,3.6,33,0.00,,---,0.00,VWS V14.01,2013-04-05 05:50:00,
2013-04-05 01:55:00,41.5,14.6,30.03,SSW,205,2.7,2.7,33,0.00,,---,0.00,VWS V14.01,2013-04-05 05:55:00,
2013-04-05 02:01:00,41.4,14.4,30.03,SSW,211,3.6,3.6,33,0.00,,---,0.00,VWS V14.01,2013-04-05 06:01:00,
2013-04-05 02:06:00,41.5,15.3,30.03,SW,217,5.4,5.4,34,0.00,,---,0.00,VWS V14.01,2013-04-05 06:06:00,
2013-04-05 02:11:00,41.5,15.3,30.03,SSW,196,0.0,0.0,34,0.00,,---,0.00,VWS V14.01,2013-04-05 06:11:00,
2013-04-05 02:16:00,41.5,15.3,30.00,South,181,8.1,8.1,34,0.00,,---,0.00,VWS V14.01,2013-04-05 06:16:00,
2013-04-05 02:21:00,41.5,16.6,30.00,SSW,208,5.8,5.8,36,0.00,,---,0.00,VWS V14.01,2013-04-05 06:21:00,
2013-04-05 02:26:00,41.5,17.8,30.00,South,189,3.1,3.1,38,0.00,,---,0.00,VWS V14.01,2013-04-05 06:26:00,
2013-04-05 02:31:00,41.4,17.7,30.00,SSW,199,2.7,2.7,38,0.00,,---,0.00,VWS V14.01,2013-04-05 06:31:00,
2013-04-05 02:36:00,41.2,18.1,30.00,South,174,6.3,6.3,39,0.00,,---,0.00,VWS V14.01,2013-04-05 06:36:00,
2013-04-05 02:41:00,41.2,18.1,30.00,South,174,3.1,3.1,39,0.00,,---,0.00,VWS V14.01,2013-04-05 06:41:00,
2013-04-05 02:46:00,41.2,18.1,30.00,SSW,192,6.7,6.7,39,0.00,,---,0.00,VWS V14.01,2013-04-05 06:46:00,
2013-04-05 02:51:00,41.0,18.5,30.00,South,183,2.7,2.7,40,0.00,,---,0.00,VWS V14.01,2013-04-05 06:51:00,
2013-04-05 02:56:00,40.8,18.4,30.00,SSW,194,5.8,5.8,40,0.00,,---,0.00,VWS V14.01,2013-04-05 06:56:00,
2013-04-05 03:01:00,40.6,18.8,30.00,South,176,2.7,2.7,41,0.00,,---,0.00,VWS V14.01,2013-04-05 07:01:00,
2013-04-05 03:06:00,40.6,19.4,30.00,South,185,5.8,5.8,42,0.00,,---,0.00,VWS V14.01,2013-04-05 07:06:00,
2013-04-05 03:12:00,40.5,19.2,30.00,SSW,193,4.0,4.0,42,0.00,,---,0.00,VWS V14.01,2013-04-05 07:12:00,
2013-04-05 03:17:00,40.3,19.6,30.00,South,189,2.7,2.7,43,0.00,,---,0.00,VWS V14.01,2013-04-05 07:17:00,
2013-04-05 03:22:00,40.3,20.1,29.97,South,189,0.0,0.0,44,0.00,,---,0.00,VWS V14.01,2013-04-05 07:22:00,
2013-04-05 03:27:00,40.3,20.1,29.97,South,181,4.0,4.0,44,0.00,,---,0.00,VWS V14.01,2013-04-05 07:27:00,
2013-04-05 03:32:00,40.1,20.5,29.97,South,181,0.0,0.0,45,0.00,,---,0.00,VWS V14.01,2013-04-05 07:32:00,
2013-04-05 03:37:00,40.1,21.5,29.97,South,181,3.1,3.1,47,0.00,,---,0.00,VWS V14.01,2013-04-05 07:37:00,
2013-04-05 03:42:00,39.9,21.3,29.97,South,181,3.1,3.1,47,0.00,,---,0.00,VWS V14.01,2013-04-05 07:42:00,
2013-04-05 03:47:00,39.9,21.8,29.97,South,181,0.0,0.0,48,0.00,,---,0.00,VWS V14.01,2013-04-05 07:47:00,
2013-04-05 03:52:00,39.7,22.2,29.97,South,181,0.0,0.0,49,0.00,,---,0.00,VWS V14.01,2013-04-05 07:52:00,
2013-04-05 03:57:00,39.7,22.2,29.97,South,181,0.0,0.0,49,0.00,,---,0.00,VWS V14.01,2013-04-05 07:57:00,
2013-04-05 04:02:00,39.7,22.2,29.94,South,181,0.0,0.0,49,0.00,,---,0.00,VWS V14.01,2013-04-05 08:02:00,
2013-04-05 04:07:00,39.6,22.5,29.94,South,181,0.0,0.0,50,0.00,,---,0.00,VWS V14.01,2013-04-05 08:07:00,
2013-04-05 04:12:00,39.6,22.5,29.94,South,181,0.0,0.0,50,0.00,,---,0.00,VWS V14.01,2013-04-05 08:12:00,
2013-04-05 04:17:00,39.6,22.5,29.94,South,181,0.0,0.0,50,0.00,,---,0.00,VWS V14.01,2013-04-05 08:17:00,
2013-04-05 04:22:00,39.6,22.9,29.94,South,181,0.0,0.0,51,0.00,,---,0.00,VWS V14.01,2013-04-05 08:22:00,
2013-04-05 04:27:00,39.6,22.9,29.94,South,181,0.0,0.0,51,0.00,,---,0.00,VWS V14.01,2013-04-05 08:27:00,
2013-04-05 04:32:00,39.4,22.8,29.94,South,181,0.0,0.0,51,0.00,,---,0.00,VWS V14.01,2013-04-05 08:32:00,
2013-04-05 04:37:00,39.4,22.8,29.94,South,181,0.0,0.0,51,0.00,,---,0.00,VWS V14.01,2013-04-05 08:37:00,
2013-04-05 04:42:00,39.4,23.2,29.94,South,181,0.0,0.0,52,0.00,,---,0.00,VWS V14.01,2013-04-05 08:42:00,
2013-04-05 04:47:00,39.4,23.2,29.91,South,181,0.0,0.0,52,0.00,,---,0.00,VWS V14.01,2013-04-05 08:47:00,
2013-04-05 04:52:00,39.2,23.1,29.91,South,181,0.0,0.0,52,0.00,,---,0.00,VWS V14.01,2013-04-05 08:52:00,
2013-04-05 04:57:00,39.2,23.1,29.94,South,181,0.0,0.0,52,0.00,,---,0.00,VWS V14.01,2013-04-05 08:57:00,
2013-04-05 05:02:00,39.2,23.5,29.94,South,181,0.0,0.0,53,0.00,,---,0.00,VWS V14.01,2013-04-05 09:02:00,
2013-04-05 05:07:00,39.4,23.7,29.94,South,181,0.0,0.0,53,0.00,,---,0.00,VWS V14.01,2013-04-05 09:07:00,
2013-04-05 05:12:00,39.4,23.7,29.94,South,181,0.0,0.0,53,0.00,,---,0.00,VWS V14.01,2013-04-05 09:12:00,
2013-04-05 05:17:00,39.4,24.1,29.91,South,181,0.0,0.0,54,0.00,,---,0.00,VWS V14.01,2013-04-05 09:17:00,
2013-04-05 05:23:00,39.4,24.1,29.91,South,181,0.0,0.0,54,0.00,,---,0.00,VWS V14.01,2013-04-05 09:23:00,
2013-04-05 05:28:00,39.4,24.1,29.91,South,181,0.0,0.0,54,0.00,,---,0.00,VWS V14.01,2013-04-05 09:28:00,
2013-04-05 05:33:00,39.4,24.6,29.94,South,181,0.0,0.0,55,0.00,,---,0.00,VWS V14.01,2013-04-05 09:33:00,
2013-04-05 05:38:00,39.4,24.6,29.94,South,181,0.0,0.0,55,0.00,,---,0.00,VWS V14.01,2013-04-05 09:38:00,
2013-04-05 05:43:00,39.4,24.6,29.91,South,181,0.0,0.0,55,0.00,,---,0.00,VWS V14.01,2013-04-05 09:43:00,
2013-04-05 05:48:00,39.4,24.6,29.91,South,181,0.0,0.0,55,0.00,,---,0.00,VWS V14.01,2013-04-05 09:48:00,
2013-04-05 05:53:00,39.4,24.6,29.91,South,181,0.0,0.0,55,0.00,,---,0.00,VWS V14.01,2013-04-05 09:53:00,
2013-04-05 05:58:00,39.4,25.0,29.91,South,181,0.0,0.0,56,0.04,,---,0.04,VWS V14.01,2013-04-05 09:58:00,
2013-04-05 06:03:00,39.2,24.8,29.91,South,181,0.0,0.0,56,0.04,,---,0.04,VWS V14.01,2013-04-05 10:03:00,
2013-04-05 06:08:00,39.2,24.8,29.91,South,181,0.0,0.0,56,0.04,,---,0.04,VWS V14.01,2013-04-05 10:08:00,
2013-04-05 06:13:00,39.2,25.3,29.91,South,181,0.0,0.0,57,0.04,,---,0.04,VWS V14.01,2013-04-05 10:13:00,
2013-04-05 06:18:00,39.2,25.3,29.91,South,181,0.0,0.0,57,0.08,,---,0.08,VWS V14.01,2013-04-05 10:18:00,
2013-04-05 06:23:00,39.0,25.1,29.91,South,181,0.0,0.0,57,0.08,,---,0.08,VWS V14.01,2013-04-05 10:23:00,
2013-04-05 06:28:00,39.0,25.1,29.91,South,181,0.0,0.0,57,0.08,,---,0.08,VWS V14.01,2013-04-05 10:28:00,
2013-04-05 06:33:00,38.8,25.3,29.91,South,181,0.0,0.0,58,0.08,,---,0.08,VWS V14.01,2013-04-05 10:33:00,
2013-04-05 06:38:00,38.8,25.3,29.91,South,181,0.0,0.0,58,0.08,,---,0.08,VWS V14.01,2013-04-05 10:38:00,
2013-04-05 06:43:00,38.8,25.3,29.91,South,181,0.0,0.0,58,0.08,,---,0.08,VWS V14.01,2013-04-05 10:43:00,
2013-04-05 06:48:00,38.8,25.3,29.88,South,181,0.0,0.0,58,0.12,,---,0.12,VWS V14.01,2013-04-05 10:48:00,
2013-04-05 06:53:00,38.8,25.8,29.88,South,181,0.0,0.0,59,0.12,,---,0.12,VWS V14.01,2013-04-05 10:53:00,
2013-04-05 06:58:00,38.8,25.8,29.88,South,181,0.0,0.0,59,0.16,,---,0.16,VWS V14.01,2013-04-05 10:58:00,
2013-04-05 07:03:00,38.8,25.8,29.88,South,181,0.0,0.0,59,0.12,,---,0.16,VWS V14.01,2013-04-05 11:03:00,
2013-04-05 07:08:00,38.8,26.2,29.88,South,181,0.0,0.0,60,0.12,,---,0.16,VWS V14.01,2013-04-05 11:08:00,
2013-04-05 07:13:00,39.0,26.3,29.91,South,181,0.0,0.0,60,0.12,,---,0.16,VWS V14.01,2013-04-05 11:13:00,
2013-04-05 07:18:00,39.0,26.3,29.91,South,181,0.0,0.0,60,0.12,,---,0.16,VWS V14.01,2013-04-05 11:18:00,
2013-04-05 07:23:00,39.0,26.7,29.91,South,181,0.0,0.0,61,0.12,,---,0.16,VWS V14.01,2013-04-05 11:23:00,
2013-04-05 07:28:00,39.2,26.5,29.91,South,181,0.0,0.0,60,0.12,,---,0.16,VWS V14.01,2013-04-05 11:28:00,
2013-04-05 07:33:00,39.2,26.9,29.91,South,181,0.0,0.0,61,0.08,,---,0.16,VWS V14.01,2013-04-05 11:33:00,
2013-04-05 07:38:00,39.2,26.9,29.91,South,181,0.0,0.0,61,0.08,,---,0.16,VWS V14.01,2013-04-05 11:38:00,
2013-04-05 07:43:00,39.2,26.9,29.88,South,181,0.0,0.0,61,0.08,,---,0.16,VWS V14.01,2013-04-05 11:43:00,
2013-04-05 07:48:00,39.2,26.9,29.88,South,181,0.0,0.0,61,0.04,,---,0.16,VWS V14.01,2013-04-05 11:48:00,
2013-04-05 07:54:00,39.4,27.5,29.88,South,181,0.0,0.0,62,0.04,,---,0.16,VWS V14.01,2013-04-05 11:54:00,
2013-04-05 07:59:00,39.6,27.6,29.88,South,181,0.0,0.0,62,0.04,,---,0.16,VWS V14.01,2013-04-05 11:59:00,
2013-04-05 08:04:00,39.7,28.2,29.88,South,181,0.0,0.0,63,0.00,,---,0.16,VWS V14.01,2013-04-05 12:04:00,
2013-04-05 08:09:00,40.1,28.5,29.88,South,181,0.0,0.0,63,0.00,,---,0.16,VWS V14.01,2013-04-05 12:09:00,
2013-04-05 08:14:00,40.3,29.1,29.88,South,181,0.0,0.0,64,0.00,,---,0.16,VWS V14.01,2013-04-05 12:14:00,
2013-04-05 08:19:00,40.3,29.1,29.88,South,181,0.0,0.0,64,0.00,,---,0.16,VWS V14.01,2013-04-05 12:19:00,
2013-04-05 08:24:00,40.5,29.3,29.88,South,181,0.0,0.0,64,0.00,,---,0.16,VWS V14.01,2013-04-05 12:24:00,
2013-04-05 08:29:00,40.5,29.3,29.88,South,181,0.0,0.0,64,0.00,,---,0.16,VWS V14.01,2013-04-05 12:29:00,
2013-04-05 08:34:00,40.5,29.3,29.88,South,181,0.0,0.0,64,0.00,,---,0.16,VWS V14.01,2013-04-05 12:34:00,
2013-04-05 08:39:00,40.5,29.3,29.88,South,181,0.0,0.0,64,0.00,,---,0.16,VWS V14.01,2013-04-05 12:39:00,
2013-04-05 08:45:00,40.5,29.3,29.88,South,181,0.0,0.0,64,0.00,,---,0.16,VWS V14.01,2013-04-05 12:45:00,
2013-04-05 08:50:00,40.6,29.4,29.85,South,181,2.7,2.7,64,0.00,,---,0.16,VWS V14.01,2013-04-05 12:50:00,
2013-04-05 08:55:00,40.6,29.8,29.85,South,181,3.1,3.1,65,0.00,,---,0.16,VWS V14.01,2013-04-05 12:55:00,
2013-04-05 09:00:00,40.6,29.8,29.85,South,186,4.0,4.0,65,0.00,,---,0.16,VWS V14.01,2013-04-05 13:00:00,
2013-04-05 09:05:00,41.0,30.1,29.85,South,191,2.2,2.2,65,0.00,,---,0.16,VWS V14.01,2013-04-05 13:05:00,
2013-04-05 09:10:00,41.4,30.5,29.85,North,0,5.4,5.4,65,0.00,,---,0.16,VWS V14.01,2013-04-05 13:10:00,
2013-04-05 09:15:00,41.7,31.2,29.83,NNW,346,4.0,4.0,66,0.00,,---,0.16,VWS V14.01,2013-04-05 13:15:00,
2013-04-05 09:20:00,42.1,31.6,29.83,NW,310,2.2,2.2,66,0.00,,---,0.16,VWS V14.01,2013-04-05 13:20:00,
2013-04-05 09:25:00,42.8,32.2,29.83,NW,309,4.9,4.9,66,0.00,,---,0.16,VWS V14.01,2013-04-05 13:25:00,
2013-04-05 09:30:00,43.0,32.4,29.83,NNW,330,5.8,5.8,66,0.00,,---,0.16,VWS V14.01,2013-04-05 13:30:00,
2013-04-05 09:35:00,43.7,33.5,29.83,West,263,4.0,4.0,67,0.00,,---,0.16,VWS V14.01,2013-04-05 13:35:00,
2013-04-05 09:40:00,44.2,34.0,29.83,NW,317,6.3,6.3,67,0.00,,---,0.16,VWS V14.01,2013-04-05 13:40:00,
2013-04-05 09:45:00,44.4,34.2,29.83,NE,56,4.0,4.0,67,0.00,,---,0.16,VWS V14.01,2013-04-05 13:45:00,
2013-04-05 09:50:00,44.4,34.2,29.83,WNW,290,4.0,4.0,67,0.00,,---,0.16,VWS V14.01,2013-04-05 13:50:00,
2013-04-05 09:55:00,44.4,33.4,29.83,WNW,288,3.6,3.6,65,0.00,,---,0.00,VWS V14.01,2013-04-05 13:55:00,
2013-04-05 10:00:00,44.4,33.4,29.83,WNW,295,2.7,2.7,65,0.00,,---,0.16,VWS V14.01,2013-04-05 14:00:00,
2013-04-05 10:05:00,44.2,32.8,29.83,ENE,70,0.0,0.0,64,0.00,,---,0.16,VWS V14.01,2013-04-05 14:05:00,
2013-04-05 10:10:00,44.4,33.0,29.83,North,0,4.0,4.0,64,0.00,,---,0.16,VWS V14.01,2013-04-05 14:10:00,
2013-04-05 10:15:00,44.6,32.8,29.83,NNW,334,2.2,2.2,63,0.00,,---,0.16,VWS V14.01,2013-04-05 14:15:00,
2013-04-05 10:20:00,45.3,33.5,29.83,NNW,328,3.1,3.1,63,0.00,,---,0.16,VWS V14.01,2013-04-05 14:20:00,
2013-04-05 10:25:00,48.9,38.1,29.83,NW,314,4.0,4.0,66,0.00,,---,0.16,VWS V14.01,2013-04-05 14:25:00,
2013-04-05 10:30:00,52.2,40.8,29.83,NW,317,2.7,2.7,65,0.00,,---,0.16,VWS V14.01,2013-04-05 14:30:00,
2013-04-05 10:36:00,53.2,40.2,29.83,NNE,17,4.0,4.0,61,0.00,,---,0.16,VWS V14.01,2013-04-05 14:36:00,
2013-04-05 10:41:00,54.3,37.1,29.83,North,10,5.4,5.4,52,0.00,,---,0.16,VWS V14.01,2013-04-05 14:41:00,
2013-04-05 10:46:00,54.5,34.7,29.80,WNW,298,0.0,0.0,47,0.00,,---,0.16,VWS V14.01,2013-04-05 14:46:00,
2013-04-05 10:51:00,55.9,33.2,29.80,West,272,4.0,4.0,42,0.00,,---,0.16,VWS V14.01,2013-04-05 14:51:00,
2013-04-05 10:56:00,56.3,31.0,29.80,WSW,240,6.3,6.3,38,0.00,,---,0.16,VWS V14.01,2013-04-05 14:56:00,
2013-04-05 11:01:00,56.3,29.0,29.80,North,353,3.6,3.6,35,0.00,,---,0.16,VWS V14.01,2013-04-05 15:01:00,
2013-04-05 11:06:00,57.6,29.4,29.80,NNE,14,3.1,3.1,34,0.00,,---,0.16,VWS V14.01,2013-04-05 15:06:00,
2013-04-05 11:11:00,57.4,27.8,29.80,WSW,246,0.0,0.0,32,0.00,,---,0.16,VWS V14.01,2013-04-05 15:11:00,
2013-04-05 11:17:00,57.2,26.1,29.80,NW,310,0.0,0.0,30,0.00,,---,0.16,VWS V14.01,2013-04-05 15:17:00,
2013-04-05 11:22:00,57.7,25.7,29.80,NW,305,3.6,3.6,29,0.00,,---,0.16,VWS V14.01,2013-04-05 15:22:00,
2013-04-05 11:27:00,57.9,24.2,29.80,WNW,283,0.0,0.0,27,0.00,,---,0.16,VWS V14.01,2013-04-05 15:27:00,
2013-04-05 11:32:00,57.6,23.0,29.77,West,268,6.3,6.3,26,0.00,,---,0.16,VWS V14.01,2013-04-05 15:32:00,
2013-04-05 11:37:00,57.0,22.5,29.77,NNE,24,6.7,6.7,26,0.00,,---,0.16,VWS V14.01,2013-04-05 15:37:00,
2013-04-05 11:42:00,56.8,22.3,29.77,WSW,244,5.8,5.8,26,0.00,,---,0.16,VWS V14.01,2013-04-05 15:42:00,
2013-04-05 11:47:00,57.0,22.5,29.80,NNW,348,4.0,4.0,26,0.00,,---,0.16,VWS V14.01,2013-04-05 15:47:00,
2013-04-05 11:52:00,57.4,21.9,29.80,North,353,7.6,7.6,25,0.00,,---,0.16,VWS V14.01,2013-04-05 15:52:00,
2013-04-05 11:57:00,57.0,18.6,29.80,NE,40,4.0,4.0,22,0.00,,---,0.16,VWS V14.01,2013-04-05 15:57:00,
2013-04-05 12:02:00,56.8,18.4,29.77,NW,324,6.3,6.3,22,0.00,,---,0.16,VWS V14.01,2013-04-05 16:02:00,
2013-04-05 12:07:00,56.8,12.5,29.77,NNW,331,7.6,7.6,17,0.00,,---,0.16,VWS V14.01,2013-04-05 16:07:00,
2013-04-05 12:12:00,57.0,12.7,29.77,NNW,343,5.8,5.8,17,0.00,,---,0.00,VWS V14.01,2013-04-05 16:12:00,
2013-04-05 12:17:00,57.6,13.1,29.77,North,353,5.8,5.8,17,0.00,,---,0.16,VWS V14.01,2013-04-05 16:17:00,
2013-04-05 12:22:00,57.9,9.0,29.77,NW,311,6.3,6.3,14,0.00,,---,0.16,VWS V14.01,2013-04-05 16:22:00,
2013-04-05 12:27:00,58.1,9.2,29.77,NW,304,9.6,9.6,14,0.00,,---,0.16,VWS V14.01,2013-04-05 16:27:00,
2013-04-05 12:32:00,58.6,9.6,29.77,NW,306,4.9,4.9,14,0.00,,---,0.16,VWS V14.01,2013-04-05 16:32:00,
2013-04-05 12:37:00,59.2,10.0,29.77,NNE,15,4.5,4.5,14,0.00,,---,0.16,VWS V14.01,2013-04-05 16:37:00,
2013-04-05 12:42:00,59.9,10.6,29.77,North,357,4.0,4.0,14,0.00,,---,0.16,VWS V14.01,2013-04-05 16:42:00,
2013-04-05 12:47:00,60.4,7.6,29.74,WNW,284,5.8,5.8,12,0.00,,---,0.16,VWS V14.01,2013-04-05 16:47:00,
2013-04-05 12:52:00,60.4,7.6,29.74,NW,319,5.4,5.4,12,0.00,,---,0.16,VWS V14.01,2013-04-05 16:52:00,
2013-04-05 12:57:00,61.0,6.1,29.74,NW,304,5.8,5.8,11,0.00,,---,0.16,VWS V14.01,2013-04-05 16:57:00,
2013-04-05 13:02:00,61.0,6.1,29.74,North,0,5.8,5.8,11,0.00,,---,0.16,VWS V14.01,2013-04-05 17:02:00,
2013-04-05 13:07:00,61.3,6.4,29.74,North,0,7.6,7.6,11,0.00,,---,0.16,VWS V14.01,2013-04-05 17:07:00,
2013-04-05 13:12:00,61.7,6.7,29.74,NE,40,5.4,5.4,11,0.00,,---,0.16,VWS V14.01,2013-04-05 17:12:00,
2013-04-05 13:17:00,62.1,7.0,29.74,WNW,293,4.0,4.0,11,0.00,,---,0.16,VWS V14.01,2013-04-05 17:17:00,
2013-04-05 13:23:00,62.4,7.2,29.74,NNW,339,7.6,7.6,11,0.00,,---,0.16,VWS V14.01,2013-04-05 17:23:00,
2013-04-05 13:28:00,62.8,7.5,29.74,WNW,290,8.3,8.3,11,0.00,,---,0.16,VWS V14.01,2013-04-05 17:28:00,
2013-04-05 13:33:00,62.8,7.5,29.74,NW,306,3.1,3.1,11,0.00,,---,0.16,VWS V14.01,2013-04-05 17:33:00,
2013-04-05 13:38:00,63.1,7.8,29.74,NNE,21,2.7,2.7,11,0.00,,---,0.16,VWS V14.01,2013-04-05 17:38:00,
2013-04-05 13:43:00,63.5,8.1,29.74,ENE,73,2.7,2.7,11,0.00,,---,0.16,VWS V14.01,2013-04-05 17:43:00,
2013-04-05 13:48:00,63.9,8.4,29.74,ENE,77,5.8,5.8,11,0.00,,---,0.16,VWS V14.01,2013-04-05 17:48:00,
2013-04-05 13:53:00,64.0,8.5,29.74,ENE,78,5.8,5.8,11,0.00,,---,0.16,VWS V14.01,2013-04-05 17:53:00,
2013-04-05 13:58:00,63.1,7.8,29.74,NE,35,2.7,2.7,11,0.00,,---,0.16,VWS V14.01,2013-04-05 17:58:00,
2013-04-05 14:03:00,63.0,7.7,29.71,NE,52,5.4,5.4,11,0.00,,---,0.16,VWS V14.01,2013-04-05 18:03:00,
2013-04-05 14:08:00,63.1,7.8,29.71,East,79,5.4,5.4,11,0.00,,---,0.16,VWS V14.01,2013-04-05 18:08:00,
2013-04-05 14:13:00,63.3,7.9,29.71,ESE,109,7.6,7.6,11,0.00,,---,0.16,VWS V14.01,2013-04-05 18:13:00,
2013-04-05 14:18:00,63.1,7.8,29.71,ENE,70,5.8,5.8,11,0.00,,---,0.16,VWS V14.01,2013-04-05 18:18:00,
2013-04-05 14:23:00,63.9,8.4,29.71,East,88,4.5,4.5,11,0.00,,---,0.16,VWS V14.01,2013-04-05 18:23:00,
2013-04-05 14:28:00,64.4,6.7,29.71,North,353,5.4,5.4,10,0.00,,---,0.16,VWS V14.01,2013-04-05 18:28:00,
2013-04-05 14:33:00,64.6,6.8,29.71,SSW,193,0.0,0.0,10,0.00,,---,0.16,VWS V14.01,2013-04-05 18:33:00,
2013-04-05 14:38:00,65.5,7.5,29.71,West,280,4.9,4.9,10,0.00,,---,0.16,VWS V14.01,2013-04-05 18:38:00,
2013-04-05 14:43:00,65.5,7.5,29.68,West,263,3.1,3.1,10,0.00,,---,0.16,VWS V14.01,2013-04-05 18:43:00,
2013-04-05 14:48:00,65.8,7.8,29.68,WNW,285,13.2,13.2,10,0.00,,---,0.16,VWS V14.01,2013-04-05 18:48:00,
2013-04-05 14:54:00,66.0,7.9,29.68,NW,325,5.4,5.4,10,0.00,,---,0.16,VWS V14.01,2013-04-05 18:54:00,
2013-04-05 14:59:00,65.8,7.8,29.68,NNW,339,3.1,3.1,10,0.00,,---,0.16,VWS V14.01,2013-04-05 18:59:00,
2013-04-05 15:04:00,65.8,7.8,29.68,NNW,342,3.6,3.6,10,0.00,,---,0.16,VWS V14.01,2013-04-05 19:04:00,
2013-04-05 15:09:00,65.7,7.6,29.68,NNW,328,6.7,6.7,10,0.00,,---,0.16,VWS V14.01,2013-04-05 19:09:00,
2013-04-05 15:14:00,66.0,7.9,29.68,NW,322,5.8,5.8,10,0.00,,---,0.16,VWS V14.01,2013-04-05 19:14:00,
2013-04-05 15:19:00,66.0,7.9,29.68,WNW,297,6.3,6.3,10,0.00,,---,0.16,VWS V14.01,2013-04-05 19:19:00,
2013-04-05 15:24:00,66.2,8.1,29.68,North,353,6.7,6.7,10,0.00,,---,0.16,VWS V14.01,2013-04-05 19:24:00,
2013-04-05 15:29:00,66.4,8.2,29.68,NW,320,8.7,8.7,10,0.00,,---,0.16,VWS V14.01,2013-04-05 19:29:00,
2013-04-05 15:34:00,65.8,7.8,29.68,West,265,9.6,9.6,10,0.00,,---,0.16,VWS V14.01,2013-04-05 19:34:00,
2013-04-05 15:40:00,65.7,7.6,29.68,South,191,9.6,9.6,10,0.00,,---,0.16,VWS V14.01,2013-04-05 19:40:00,
2013-04-05 15:45:00,65.5,7.5,29.68,WNW,282,6.3,6.3,10,0.00,,---,0.16,VWS V14.01,2013-04-05 19:45:00,
2013-04-05 15:50:00,65.7,7.6,29.68,West,264,3.1,3.1,10,0.00,,---,0.16,VWS V14.01,2013-04-05 19:50:00,
2013-04-05 15:55:00,65.7,7.6,29.68,NW,304,5.4,5.4,10,0.00,,---,0.16,VWS V14.01,2013-04-05 19:55:00,
2013-04-05 16:00:00,65.5,7.5,29.68,WSW,253,7.6,7.6,10,0.00,,---,0.16,VWS V14.01,2013-04-05 20:00:00,
2013-04-05 16:05:00,64.8,6.9,29.68,WSW,252,6.7,6.7,10,0.00,,---,0.16,VWS V14.01,2013-04-05 20:05:00,
2013-04-05 16:10:00,64.8,6.9,29.68,WNW,294,3.1,3.1,10,0.00,,---,0.16,VWS V14.01,2013-04-05 20:10:00,
2013-04-05 16:15:00,64.4,6.7,29.68,West,262,8.3,8.3,10,0.00,,---,0.16,VWS V14.01,2013-04-05 20:15:00,
2013-04-05 16:20:00,64.0,8.5,29.68,West,279,5.8,5.8,11,0.00,,---,0.16,VWS V14.01,2013-04-05 20:20:00,
2013-04-05 16:25:00,63.7,8.2,29.68,West,278,4.0,4.0,11,0.00,,---,0.16,VWS V14.01,2013-04-05 20:25:00,
2013-04-05 16:30:00,63.5,8.1,29.68,NW,313,4.0,4.0,11,0.00,,---,0.16,VWS V14.01,2013-04-05 20:30:00,
2013-04-05 16:35:00,63.1,7.8,29.68,WSW,237,8.3,8.3,11,0.00,,---,0.16,VWS V14.01,2013-04-05 20:35:00,
2013-04-05 16:40:00,63.1,7.8,29.68,NW,316,5.4,5.4,11,0.00,,---,0.16,VWS V14.01,2013-04-05 20:40:00,
2013-04-05 16:45:00,63.0,7.7,29.68,WNW,303,7.6,7.6,11,0.00,,---,0.16,VWS V14.01,2013-04-05 20:45:00,
2013-04-05 16:50:00,62.8,7.5,29.68,WSW,257,8.3,8.3,11,0.00,,---,0.16,VWS V14.01,2013-04-05 20:50:00,
2013-04-05 16:55:00,62.8,7.5,29.68,WSW,245,8.1,8.1,11,0.00,,---,0.16,VWS V14.01,2013-04-05 20:55:00,
2013-04-05 17:00:00,62.8,7.5,29.68,WSW,246,5.4,5.4,11,0.00,,---,0.16,VWS V14.01,2013-04-05 21:00:00,
2013-04-05 17:05:00,62.8,7.5,29.68,WNW,284,6.3,6.3,11,0.00,,---,0.16,VWS V14.01,2013-04-05 21:05:00,
2013-04-05 17:10:00,62.8,7.5,29.68,West,261,8.7,8.7,11,0.00,,---,0.16,VWS V14.01,2013-04-05 21:10:00,
2013-04-05 17:15:00,63.0,7.7,29.68,WNW,283,5.4,5.4,11,0.00,,---,0.16,VWS V14.01,2013-04-05 21:15:00,
2013-04-05 17:20:00,62.8,7.5,29.68,WSW,238,2.2,2.2,11,0.00,,---,0.16,VWS V14.01,2013-04-05 21:20:00,
2013-04-05 17:25:00,62.6,7.4,29.68,NNW,328,10.5,10.5,11,0.00,,---,0.16,VWS V14.01,2013-04-05 21:25:00,
2013-04-05 17:30:00,62.6,7.4,29.68,North,0,5.4,5.4,11,0.00,,---,0.16,VWS V14.01,2013-04-05 21:30:00,
2013-04-05 17:35:00,62.4,7.2,29.71,NW,306,5.8,5.8,11,0.00,,---,0.16,VWS V14.01,2013-04-05 21:35:00,
2013-04-05 17:40:00,62.2,7.1,29.71,WNW,293,9.2,9.2,11,0.00,,---,0.16,VWS V14.01,2013-04-05 21:40:00,
2013-04-05 17:45:00,61.7,6.7,29.71,NNW,336,10.1,10.1,11,0.00,,---,0.16,VWS V14.01,2013-04-05 21:45:00,
2013-04-05 17:50:00,61.3,6.4,29.71,NW,321,5.4,5.4,11,0.00,,---,0.16,VWS V14.01,2013-04-05 21:50:00,
2013-04-05 17:55:00,61.2,6.3,29.71,NW,322,4.0,4.0,11,0.00,,---,0.16,VWS V14.01,2013-04-05 21:55:00,
2013-04-05 18:00:00,60.8,6.0,29.71,NW,320,3.6,3.6,11,0.00,,---,0.16,VWS V14.01,2013-04-05 22:00:00,
2013-04-05 18:05:00,60.6,7.8,29.71,NNW,333,8.7,8.7,12,0.00,,---,0.16,VWS V14.01,2013-04-05 22:05:00,
2013-04-05 18:10:00,60.4,7.6,29.71,WNW,302,8.7,8.7,12,0.00,,---,0.16,VWS V14.01,2013-04-05 22:10:00,
2013-04-05 18:15:00,60.3,7.5,29.71,NNW,338,8.1,8.1,12,0.00,,---,0.16,VWS V14.01,2013-04-05 22:15:00,
2013-04-05 18:20:00,59.9,7.2,29.71,NW,322,6.3,6.3,12,0.00,,---,0.16,VWS V14.01,2013-04-05 22:20:00,
2013-04-05 18:26:00,59.7,7.0,29.71,West,271,8.1,8.1,12,0.00,,---,0.16,VWS V14.01,2013-04-05 22:26:00,
2013-04-05 18:31:00,59.5,6.9,29.71,NW,324,3.1,3.1,12,0.00,,---,0.16,VWS V14.01,2013-04-05 22:31:00,
2013-04-05 18:36:00,59.4,6.8,29.71,NNW,330,7.6,7.6,12,0.00,,---,0.16,VWS V14.01,2013-04-05 22:36:00,
2013-04-05 18:41:00,59.0,6.5,29.71,NW,305,5.8,5.8,12,0.00,,---,0.16,VWS V14.01,2013-04-05 22:41:00,
2013-04-05 18:46:00,58.8,6.3,29.74,NW,304,4.9,4.9,12,0.00,,---,0.16,VWS V14.01,2013-04-05 22:46:00,
2013-04-05 18:51:00,58.5,6.1,29.74,West,266,5.4,5.4,12,0.00,,---,0.16,VWS V14.01,2013-04-05 22:51:00,
2013-04-05 18:56:00,58.1,5.8,29.74,WNW,301,4.9,4.9,12,0.00,,---,0.16,VWS V14.01,2013-04-05 22:56:00,
2013-04-05 19:01:00,57.7,5.5,29.74,NW,305,4.0,4.0,12,0.00,,---,0.16,VWS V14.01,2013-04-05 23:01:00,
2013-04-05 19:06:00,57.6,5.3,29.74,NNW,343,4.0,4.0,12,0.00,,---,0.16,VWS V14.01,2013-04-05 23:06:00,
2013-04-05 19:11:00,57.2,5.1,29.74,WNW,291,2.7,2.7,12,0.00,,---,0.16,VWS V14.01,2013-04-05 23:11:00,
2013-04-05 19:18:00,56.8,4.8,29.74,North,5,11.4,11.4,12,0.00,,---,0.16,VWS V14.01,2013-04-05 23:18:00,
2013-04-05 19:23:00,56.7,4.6,29.74,NNW,337,3.6,3.6,12,0.00,,---,0.16,VWS V14.01,2013-04-05 23:23:00,
2013-04-05 19:28:00,55.9,4.1,29.74,NW,312,3.6,3.6,12,0.00,,---,0.16,VWS V14.01,2013-04-05 23:28:00,
2013-04-05 19:33:00,55.4,3.7,29.77,WNW,297,6.3,6.3,12,0.00,,---,0.16,VWS V14.01,2013-04-05 23:33:00,
2013-04-05 19:38:00,55.4,3.7,29.77,WNW,301,5.8,5.8,12,0.00,,---,0.16,VWS V14.01,2013-04-05 23:38:00,
2013-04-05 19:43:00,55.2,5.2,29.77,NW,306,8.3,8.3,13,0.00,,---,0.16,VWS V14.01,2013-04-05 23:43:00,
2013-04-05 19:48:00,54.9,5.0,29.77,NNW,327,3.1,3.1,13,0.00,,---,0.16,VWS V14.01,2013-04-05 23:48:00,
2013-04-05 19:53:00,54.5,4.7,29.77,WNW,296,2.7,2.7,13,0.00,,---,0.16,VWS V14.01,2013-04-05 23:53:00,
2013-04-05 19:58:00,53.8,4.1,29.77,NW,309,2.2,2.2,13,0.00,,---,0.16,VWS V14.01,2013-04-05 23:58:00,
2013-04-05 20:03:00,53.4,3.8,29.77,WNW,303,0.0,0.0,13,0.00,,---,0.16,VWS V14.01,2013-04-06 00:03:00,
2013-04-05 20:08:00,53.4,3.8,29.77,NNW,331,2.7,2.7,13,0.00,,---,0.16,VWS V14.01,2013-04-06 00:08:00,
2013-04-05 20:13:00,52.9,3.4,29.77,NNW,328,0.0,0.0,13,0.00,,---,0.16,VWS V14.01,2013-04-06 00:13:00,
2013-04-05 20:18:00,52.5,3.1,29.77,NW,311,2.2,2.2,13,0.00,,---,0.16,VWS V14.01,2013-04-06 00:18:00,
2013-04-05 20:23:00,51.8,2.5,29.80,North,2,3.6,3.6,13,0.00,,---,0.16,VWS V14.01,2013-04-06 00:23:00,
2013-04-05 20:28:00,51.8,2.5,29.80,WNW,291,0.0,0.0,13,0.00,,---,0.16,VWS V14.01,2013-04-06 00:28:00,
2013-04-05 20:33:00,51.6,4.0,29.80,North,357,3.1,3.1,14,0.00,,---,0.16,VWS V14.01,2013-04-06 00:33:00,
2013-04-05 20:39:00,51.1,3.6,29.80,NW,319,2.7,2.7,14,0.00,,---,0.16,VWS V14.01,2013-04-06 00:39:00,
2013-04-05 20:44:00,50.7,3.3,29.80,NW,311,0.0,0.0,14,0.00,,---,0.16,VWS V14.01,2013-04-06 00:44:00,
2013-04-05 20:49:00,50.4,3.0,29.80,WNW,299,0.0,0.0,14,0.00,,---,0.16,VWS V14.01,2013-04-06 00:49:00,
2013-04-05 20:54:00,49.6,2.4,29.80,WSW,249,0.0,0.0,14,0.00,,---,0.16,VWS V14.01,2013-04-06 00:54:00,
2013-04-05 20:59:00,48.9,1.8,29.80,WSW,249,0.0,0.0,14,0.00,,---,0.16,VWS V14.01,2013-04-06 00:59:00,
2013-04-05 21:04:00,48.2,1.2,29.80,NNE,21,0.0,0.0,14,0.00,,---,0.16,VWS V14.01,2013-04-06 01:04:00,
2013-04-05 21:09:00,48.0,1.1,29.83,NNW,329,3.1,3.1,14,0.00,,---,0.16,VWS V14.01,2013-04-06 01:09:00,
2013-04-05 21:14:00,48.4,1.4,29.83,North,3,3.1,3.1,14,0.00,,---,0.16,VWS V14.01,2013-04-06 01:14:00,
2013-04-05 21:19:00,48.6,1.5,29.83,NNW,340,2.2,2.2,14,0.00,,---,0.16,VWS V14.01,2013-04-06 01:19:00,
2013-04-05 21:24:00,48.7,1.7,29.83,NNW,343,5.4,5.4,14,0.00,,---,0.16,VWS V14.01,2013-04-06 01:24:00,
2013-04-05 21:29:00,48.9,1.8,29.83,NW,307,5.8,5.8,14,0.00,,---,0.16,VWS V14.01,2013-04-06 01:29:00,
2013-04-05 21:34:00,49.1,2.0,29.85,NW,315,3.6,3.6,14,0.00,,---,0.16,VWS V14.01,2013-04-06 01:34:00,
2013-04-05 21:39:00,49.5,2.3,29.85,North,4,4.0,4.0,14,0.00,,---,0.16,VWS V14.01,2013-04-06 01:39:00,
2013-04-05 21:45:00,49.8,2.5,29.85,North,353,4.5,4.5,14,0.00,,---,0.16,VWS V14.01,2013-04-06 01:45:00,
2013-04-05 21:50:00,49.8,2.5,29.85,North,0,8.3,8.3,14,0.00,,---,0.16,VWS V14.01,2013-04-06 01:50:00,
2013-04-05 21:55:00,49.6,2.4,29.85,NW,321,4.5,4.5,14,0.00,,---,0.16,VWS V14.01,2013-04-06 01:55:00,
2013-04-05 22:00:00,49.5,2.3,29.85,NNW,332,6.3,6.3,14,0.00,,---,0.16,VWS V14.01,2013-04-06 02:00:00,
2013-04-05 22:05:00,49.5,2.3,29.85,WNW,296,5.4,5.4,14,0.00,,---,0.16,VWS V14.01,2013-04-06 02:05:00,
2013-04-05 22:10:00,49.5,2.3,29.85,NW,326,6.3,6.3,14,0.00,,---,0.16,VWS V14.01,2013-04-06 02:10:00,
2013-04-05 22:15:00,49.3,2.1,29.88,NNW,331,6.3,6.3,14,0.00,,---,0.16,VWS V14.01,2013-04-06 02:15:00,
2013-04-05 22:20:00,49.1,2.0,29.88,WNW,299,5.8,5.8,14,0.00,,---,0.16,VWS V14.01,2013-04-06 02:20:00,
2013-04-05 22:25:00,48.9,1.8,29.88,NNW,338,5.4,5.4,14,0.00,,---,0.16,VWS V14.01,2013-04-06 02:25:00,
2013-04-05 22:30:00,48.7,1.7,29.88,North,0,4.0,4.0,14,0.00,,---,0.16,VWS V14.01,2013-04-06 02:30:00,
2013-04-05 22:35:00,48.6,1.5,29.88,NW,306,4.0,4.0,14,0.00,,---,0.16,VWS V14.01,2013-04-06 02:35:00,
2013-04-05 22:40:00,48.2,1.2,29.88,NW,306,4.0,4.0,14,0.00,,---,0.16,VWS V14.01,2013-04-06 02:40:00,
2013-04-05 22:45:00,48.0,1.1,29.88,NW,314,8.3,8.3,14,0.00,,---,0.16,VWS V14.01,2013-04-06 02:45:00,
2013-04-05 22:51:00,47.8,1.0,29.88,North,357,2.7,2.7,14,0.00,,---,0.16,VWS V14.01,2013-04-06 02:51:00,
2013-04-05 22:56:00,47.7,0.8,29.88,NNW,336,5.4,5.4,14,0.00,,---,0.16,VWS V14.01,2013-04-06 02:56:00,
2013-04-05 23:01:00,47.5,0.7,29.88,WNW,291,5.4,5.4,14,0.00,,---,0.16,VWS V14.01,2013-04-06 03:01:00,
2013-04-05 23:06:00,47.3,0.5,29.88,NNW,345,5.4,5.4,14,0.00,,---,0.16,VWS V14.01,2013-04-06 03:06:00,
2013-04-05 23:11:00,46.9,0.2,29.88,North,6,8.7,8.7,14,0.00,,---,0.16,VWS V14.01,2013-04-06 03:11:00,
2013-04-05 23:17:00,46.6,-0.1,29.91,North,353,8.7,8.7,14,0.00,,---,0.16,VWS V14.01,2013-04-06 03:17:00,
2013-04-05 23:22:00,46.6,-0.1,29.91,NNW,343,6.7,6.7,14,0.00,,---,0.16,VWS V14.01,2013-04-06 03:22:00,
2013-04-05 23:27:00,46.4,-0.2,29.91,North,1,8.1,8.1,14,0.00,,---,0.16,VWS V14.01,2013-04-06 03:27:00,
2013-04-05 23:32:00,46.0,1.0,29.91,NW,321,6.3,6.3,15,0.00,,---,0.16,VWS V14.01,2013-04-06 03:32:00,
2013-04-05 23:37:00,45.9,0.8,29.91,North,0,7.6,7.6,15,0.00,,---,0.16,VWS V14.01,2013-04-06 03:37:00,
2013-04-05 23:42:00,45.7,0.7,29.91,NNW,331,7.6,7.6,15,0.00,,---,0.16,VWS V14.01,2013-04-06 03:42:00,
2013-04-05 23:47:00,45.5,0.6,29.91,North,357,11.0,11.0,15,0.00,,---,0.16,VWS V14.01,2013-04-06 03:47:00,
2013-04-05 23:52:00,45.1,0.3,29.91,North,0,10.1,10.1,15,0.00,,---,0.16,VWS V14.01,2013-04-06 03:52:00,
2013-04-05 23:57:00,44.8,0.0,29.91,North,353,9.6,9.6,15,0.00,,---,0.16,VWS V14.01,2013-04-06 03:57:00,